SL-12 DEB, 23616

Orbit data source: Space-Track

SL-12 DEB, 23616 is space debris originally from a launch on Thu, 30 Jul 1992 UTC launched from the Tyuratam Missile And Space Complex (TTMTR). Debris objects in space refer to the collection of defunct objects orbiting the Earth. Examples of debris include non-operational satellites, rocket bodies, and fragments generated from explosions, collisions, or faulty payload assembly.

Loading next visibility...
Identifier
23616, 1992-047J
Orbit
Active
Country
Flag of CISCIS
Related business
Manufacturer
Unknown
Mission
Spacecraft
Bus & Motor
Unknown
Mass
Unknown
Launch date (UTC)
1992-07-30 (33 years ago)
Launch vehicle
Unknown
Launch site
Tyuratam Missile And Space Complex (TTMTR)
Object type
Payload
Rocket body
Debris
Shape & HBR
Unknown shape, 0.3 m
Radar Cross Section
Medium (>0.1 m² and <1 m²)

Expand to show TLE details & history
Last TLE update: 1 day ago

TLE from 1 day ago
0 SL-12 DEB
1 23616U 92047J   25348.44714594  .00067393  00000-0  16594-2 0  9995
2 23616  64.2186  47.7296 3308967 152.9106 229.2147  8.82280033126439
Epoch: 2025-12-14T10:43Z
TLE epoch observation values (Epoch: 2025-12-14T10:43:53.409Z)
Latitude
-0.00001°
Longitude
163.39712°
Altitude
6,109.453 km
Speed
4.854 km/s
True Right ascension
03h 10m 55s
True Declination
0° 00' 00"
Sunlit
Object was in daylight at epoch
Visualization orbit readout
Latitude
Unknown
Longitude
Unknown
Altitude
Unknown
Speed
Unknown
Apparent Right ascension
Unknown
Apparent Declination
Unknown
Sunlit
N/A
Visualization observer readout
Local Sidereal Time
15:06:13
Azimuth
Unknown
Elevation
Unknown
Doppler factor
Unknown
Orbital elements
Apogee altitude
6,786.995 km
Perigee altitude
240.583 km
Semi-major axis
9,891.926 km
Eccentricity
0.3309
Inclination
64.2186°
RAAN
47.7296°
Arg. of periapsis
152.9106°
True anomaly
207.16865°
Mean anomaly
229.2147°
Eccentric anomaly
217.63721°
Mean motion
2.20608 °/min
Orbital period
163.19 mins
BSTAR
0.0016594
Loading maneuver chart data...
Computing Atmospheric mass density...
Loading historical data...
Loading historical data...
Loading historical data...
Loading historical data...
Loading historical data...
Loading historical data...
Loading historical data...

Documentation

Showing up to 5 results
|